[[{"header":{"parameterUnit":"m.s-1","parameterCategory":2,"la1":30.2992,"la2":30.254,"lo1":-89.0895,"lo2":-89.0443,"dy":0.0025,"dx":0.0025,"nx":19,"ny":19,"refTime":"2026-05-04T09:00:00:Z","depth":"0","parameterNumber":2,"parameterNumberName":"U-component_of_CURRENTS"},"data":[0,0,0,-0.3832,-0.3837,-0.4063,-0.4064,-0.4153,-0.4153,0,0,0,0,0,0,0,0,0,0,0,-0.3747,-0.3749,-0.3831,-0.3837,-0.4063,-0.4064,-0.4153,-0.4153,0,0,0,0,0,0,0,0,0,0,0,-0.3746,-0.3748,-0.375,-0.3838,-0.4063,-0.4064,-0.4153,-0.4031,0,0,0,0,0,0,0,0,0,0,-0.3837,-0.376,-0.3748,-0.375,-0.3839,-0.4062,-0.4064,-0.4028,-0.4039,-0.3994,0,-0.4038,0,-0.4098,-0.4155,-0.4155,0,0,0,-0.3835,-0.3751,-0.3842,-0.3751,-0.3841,-0.4062,-0.396,-0.4036,-0.4048,-0.4008,-0.404,-0.4045,-0.4099,-0.4155,-0.4155,-0.4118,-0.4118,0,0,-0.3822,-0.3755,-0.3834,-0.385,-0.3907,-0.3953,-0.3967,-0.4045,-0.4038,-0.4041,-0.4049,-0.4101,-0.4155,-0.4155,-0.4119,-0.4118,0,0,0,-0.3788,-0.3746,-0.3838,-0.3844,-0.3902,-0.396,-0.3976,-0.4034,-0.4075,-0.405,-0.4102,-0.4155,-0.4156,-0.4119,-0.4118,-0.3938,0,0,0,-0.378,-0.3728,-0.3832,-0.379,-0.3902,-0.3992,-0.3962,-0.4069,-0.4081,-0.4101,-0.4155,-0.4156,-0.412,-0.4119,-0.3944,-0.3868,0,0,0,-0.3735,-0.3721,-0.3758,-0.3786,-0.3891,-0.3993,-0.4038,-0.4074,-0.4111,-0.4155,-0.4156,-0.412,-0.4119,-0.395,-0.3878,-0.3784,0,0,0,-0.3645,-0.3716,-0.3756,-0.3842,-0.3889,-0.4003,-0.4039,-0.4115,-0.4153,-0.4155,-0.412,-0.4118,-0.3951,-0.3884,-0.379,-0.365,-0.3609,0,0,-0.3693,-0.3718,-0.3775,-0.3819,-0.3915,-0.3971,-0.3967,-0.4036,-0.4106,-0.4081,-0.4083,-0.3942,-0.3879,-0.3785,-0.357,-0.3529,0,0,0,-0.3764,-0.3783,-0.3832,-0.3887,-0.3977,-0.3934,-0.4004,-0.3975,-0.3962,-0.4126,-0.3964,-0.3931,-0.3877,-0.3807,-0.3776,-0.3693,-0.4112,-0.4112,-0.4112,-0.3674,-0.375,-0.3788,-0.3852,-0.3882,-0.389,-0.3844,-0.3805,-0.3886,-0.3831,-0.3799,-0.3628,-0.3552,-0.3527,-0.3443,-0.3818,-0.3818,-0.3817,-0.3817,-0.3659,-0.3643,-0.3683,-0.3747,-0.3707,-0.3674,-0.3606,-0.3614,-0.3511,-0.3613,-0.357,-0.3641,-0.3481,-0.3405,-0.3805,-0.3807,-0.3809,-0.381,-0.3811,-0.353,-0.3521,-0.3579,-0.3573,-0.3493,-0.3491,-0.3356,-0.3354,-0.3368,-0.3313,-0.3288,-0.329,-0.321,-0.3306,-0.3305,-0.3305,-0.3304,-0.3303,-0.3303,-0.3342,-0.3397,-0.3338,-0.3367,-0.3296,-0.3229,-0.3189,-0.3157,-0.3096,-0.3084,-0.3084,-0.3126,-0.3474,-0.3479,-0.3291,-0.3293,-0.3295,-0.3296,-0.3297,-0.3163,-0.3178,-0.3072,-0.3011,-0.2887,-0.2732,-0.2837,-0.279,-0.2782,-0.2724,-0.2701,-0.2962,-0.301,-0.3037,-0.3033,-0.2741,-0.2741,-0.2741,-0.2741,-0.2981,-0.3005,-0.2752,-0.257,-0.2444,-0.2438,-0.2278,-0.2342,-0.2383,-0.2331,-0.2426,-0.2491,-0.2517,-0.2544,-0.2582,-0.2574,-0.2171,-0.2171,-0.217,-0.282,-0.2762,-0.2493,-0.2349,-0.2184,-0.2126,-0.1936,-0.1918,-0.2031,-0.2146,-0.2327,-0.2351,-0.2457,-0.2506,-0.2573,-0.2632,-0.2632,0,0]},{"header":{"parameterUnit":"m.s-1","parameterCategory":2,"la1":30.2992,"la2":30.254,"lo1":-89.0895,"lo2":-89.0443,"dy":0.0025,"dx":0.0025,"nx":19,"ny":19,"refTime":"2026-05-04T09:00:00:Z","depth":"0","parameterNumber":3,"parameterNumberName":"V-component_of_CURRENTS"},"data":[0,0,0,-0.0606,-0.0604,-0.0452,-0.0451,-0.0221,-0.0219,0,0,0,0,0,0,0,0,0,0,0,-0.0654,-0.0654,-0.0606,-0.0604,-0.0452,-0.045,-0.0221,-0.0219,0,0,0,0,0,0,0,0,0,0,0,-0.0654,-0.0654,-0.0654,-0.0603,-0.0452,-0.045,-0.0222,-0.0336,0,0,0,0,0,0,0,0,0,0,-0.0485,-0.0538,-0.0654,-0.0654,-0.0603,-0.0452,-0.045,-0.0342,-0.0329,-0.0292,0,-0.0289,0,-0.0266,-0.0207,-0.0206,0,0,0,-0.0566,-0.0549,-0.0525,-0.0653,-0.0602,-0.0453,-0.051,-0.0335,-0.032,-0.0275,-0.0286,-0.0277,-0.0262,-0.0205,-0.0204,-0.017,-0.0171,0,0,-0.0575,-0.06,-0.0536,-0.0517,-0.0589,-0.0515,-0.0506,-0.0326,-0.0311,-0.0285,-0.0272,-0.0259,-0.0204,-0.0203,-0.0169,-0.017,0,0,0,-0.0624,-0.0606,-0.0586,-0.0527,-0.0511,-0.0511,-0.05,-0.0318,-0.0318,-0.027,-0.0256,-0.0203,-0.0201,-0.0168,-0.0169,-0.0313,0,0,0,-0.0627,-0.0637,-0.0591,-0.0599,-0.0516,-0.0416,-0.0497,-0.033,-0.0309,-0.0257,-0.0203,-0.0199,-0.0166,-0.0168,-0.0306,-0.034,0,0,0,-0.0656,-0.0639,-0.0635,-0.0602,-0.0555,-0.0419,-0.0405,-0.0324,-0.0302,-0.0206,-0.0198,-0.0166,-0.0168,-0.0301,-0.0332,-0.0294,0,0,0,-0.0667,-0.0725,-0.0635,-0.0677,-0.0558,-0.053,-0.0406,-0.0349,-0.028,-0.0202,-0.0166,-0.0169,-0.0299,-0.0326,-0.029,-0.0145,-0.0151,0,0,-0.0765,-0.0736,-0.0763,-0.0682,-0.0702,-0.0547,-0.0548,-0.0399,-0.0305,-0.0213,-0.0212,-0.0308,-0.0331,-0.0293,-0.0289,-0.029,0,0,0,-0.081,-0.0835,-0.0823,-0.0801,-0.0733,-0.0659,-0.0522,-0.0463,-0.0379,-0.0282,-0.0319,-0.0328,-0.0299,-0.0205,-0.0207,0.0112,-0.0181,-0.018,-0.018,-0.097,-0.0931,-0.0971,-0.0916,-0.087,-0.0735,-0.0672,-0.0566,-0.0475,-0.0478,-0.0455,-0.0536,-0.0444,-0.0442,-0.0119,-0.048,-0.048,-0.0481,-0.0481,-0.1139,-0.1166,-0.108,-0.1115,-0.0999,-0.0965,-0.0803,-0.0731,-0.0642,-0.0589,-0.0554,-0.0375,-0.0451,-0.0106,-0.049,-0.0489,-0.0487,-0.0487,-0.0486,-0.1254,-0.1264,-0.1267,-0.1269,-0.121,-0.1078,-0.0999,-0.0883,-0.0753,-0.074,-0.0536,-0.0531,-0.0207,-0.0703,-0.0704,-0.0704,-0.0704,-0.0704,-0.0704,-0.1373,-0.1374,-0.1416,-0.1406,-0.1368,-0.1286,-0.1099,-0.0995,-0.0777,-0.0651,-0.0648,-0.0192,-0.0601,-0.0569,-0.0705,-0.0704,-0.0704,-0.0704,-0.0704,-0.1538,-0.151,-0.157,-0.1564,-0.1479,-0.1401,-0.1232,-0.0929,-0.079,-0.0647,-0.0109,-0.0561,-0.0468,-0.0464,-0.0427,-0.0517,-0.0517,-0.0517,-0.0517,-0.1628,-0.1628,-0.1648,-0.1618,-0.1569,-0.1432,-0.1208,-0.0836,-0.0256,0.0086,0.0143,0.0238,0.0216,0.0355,0.0341,0.0398,0.0518,0.052,0.0521,-0.1729,-0.1706,-0.1718,-0.1658,-0.1579,-0.1459,-0.1192,-0.0583,0.0293,0.0592,0.0555,0.0511,0.0674,0.0614,0.085,0.0804,0.0902,0,0]}],[{"header":{"parameterUnit":"m.s-1","parameterCategory":2,"la1":30.2992,"la2":30.254,"lo1":-89.0895,"lo2":-89.0443,"dy":0.0025,"dx":0.0025,"nx":19,"ny":19,"refTime":"2026-05-04T09:00:00:Z","depth":"2","parameterNumber":2,"parameterNumberName":"U-component_of_CURRENTS"},"data":[0,0,0,-0.2696,-0.2701,-0.2914,-0.2914,-0.2967,-0.2967,0,0,0,0,0,0,0,0,0,0,0,-0.2609,-0.2611,-0.2696,-0.2702,-0.2914,-0.2914,-0.2967,-0.2967,0,0,0,0,0,0,0,0,0,0,0,-0.2608,-0.261,-0.2612,-0.2703,-0.2914,-0.2914,-0.2967,-0.2856,0,0,0,0,0,0,0,0,0,0,-0.2675,-0.2622,-0.261,-0.2612,-0.2704,-0.2913,-0.2914,-0.2853,-0.2863,-0.2815,0,-0.2864,0,-0.2928,-0.2967,-0.2967,0,0,0,-0.2681,-0.2615,-0.269,-0.2613,-0.2706,-0.2913,-0.2812,-0.286,-0.2871,-0.2827,-0.2866,-0.287,-0.2929,-0.2967,-0.2967,-0.3006,-0.3006,0,0,-0.2669,-0.2622,-0.2683,-0.2697,-0.2779,-0.2806,-0.2819,-0.2869,-0.2871,-0.2866,-0.2873,-0.293,-0.2967,-0.2967,-0.3005,-0.3006,0,0,0,-0.265,-0.2614,-0.2692,-0.2693,-0.2756,-0.2812,-0.2828,-0.2869,-0.2901,-0.2874,-0.2931,-0.2967,-0.2968,-0.3005,-0.3005,-0.3014,0,0,0,-0.2642,-0.2605,-0.2686,-0.2657,-0.2757,-0.2844,-0.2825,-0.2897,-0.2907,-0.293,-0.2967,-0.2968,-0.3005,-0.3005,-0.3013,-0.2987,0,0,0,-0.2596,-0.26,-0.2635,-0.2655,-0.2761,-0.2846,-0.2881,-0.2902,-0.294,-0.2967,-0.2968,-0.3004,-0.3005,-0.3012,-0.2986,-0.2955,0,0,0,-0.2525,-0.2596,-0.2634,-0.273,-0.2759,-0.2895,-0.2882,-0.2975,-0.3008,-0.2967,-0.3005,-0.3005,-0.3012,-0.2986,-0.2956,-0.2756,-0.2739,0,0,-0.2577,-0.26,-0.2661,-0.2702,-0.2822,-0.2863,-0.2947,-0.2988,-0.2994,-0.2967,-0.2971,-0.3014,-0.2986,-0.2955,-0.2807,-0.2788,0,0,0,-0.2654,-0.2679,-0.273,-0.2809,-0.2912,-0.2951,-0.3011,-0.3024,-0.3042,-0.3024,-0.3029,-0.3011,-0.2991,-0.2873,-0.2858,-0.301,-0.301,-0.3009,-0.3009,-0.2602,-0.2684,-0.2753,-0.2844,-0.2921,-0.3011,-0.3038,-0.3051,-0.3064,-0.3079,-0.3031,-0.3028,-0.2905,-0.2891,-0.3062,-0.3062,-0.3063,-0.3063,-0.3063,-0.261,-0.2634,-0.2726,-0.2811,-0.288,-0.294,-0.3022,-0.3045,-0.3038,-0.3059,-0.304,-0.2904,-0.2874,-0.3064,-0.3063,-0.3063,-0.3063,-0.3063,-0.3063,-0.2521,-0.2541,-0.2608,-0.2701,-0.2777,-0.288,-0.2916,-0.2983,-0.3018,-0.3013,-0.2862,-0.2859,-0.2997,-0.3004,-0.3004,-0.3003,-0.3003,-0.3003,-0.3003,-0.2383,-0.246,-0.2462,-0.2579,-0.2628,-0.2713,-0.2846,-0.2866,-0.2847,-0.2829,-0.2827,-0.3007,-0.3009,-0.2993,-0.2999,-0.3,-0.3,-0.3001,-0.3001,-0.2254,-0.2279,-0.2291,-0.2322,-0.2432,-0.2419,-0.2615,-0.2604,-0.2638,-0.2575,-0.2715,-0.2723,-0.2686,-0.2695,-0.2671,-0.2594,-0.2594,-0.2594,-0.2594,-0.2121,-0.2145,-0.2106,-0.2118,-0.2171,-0.2266,-0.2159,-0.2182,-0.2282,-0.2277,-0.2291,-0.2268,-0.229,-0.2232,-0.2253,-0.222,-0.2026,-0.2025,-0.2024,-0.1996,-0.2017,-0.192,-0.196,-0.2028,-0.204,-0.1852,-0.1705,-0.177,-0.2007,-0.2247,-0.2546,-0.255,-0.257,-0.2514,-0.2534,-0.2495,0,0]},{"header":{"parameterUnit":"m.s-1","parameterCategory":2,"la1":30.2992,"la2":30.254,"lo1":-89.0895,"lo2":-89.0443,"dy":0.0025,"dx":0.0025,"nx":19,"ny":19,"refTime":"2026-05-04T09:00:00:Z","depth":"2","parameterNumber":3,"parameterNumberName":"V-component_of_CURRENTS"},"data":[0,0,0,-0.0403,-0.0402,-0.0347,-0.0346,-0.0134,-0.0132,0,0,0,0,0,0,0,0,0,0,0,-0.0413,-0.0413,-0.0403,-0.0402,-0.0347,-0.0346,-0.0135,-0.0132,0,0,0,0,0,0,0,0,0,0,0,-0.0413,-0.0413,-0.0413,-0.0402,-0.0347,-0.0346,-0.0135,-0.0206,0,0,0,0,0,0,0,0,0,0,-0.0275,-0.0319,-0.0413,-0.0413,-0.0402,-0.0347,-0.0346,-0.0211,-0.0202,-0.0126,0,-0.0131,0,-0.0137,-0.0117,-0.0116,0,0,0,-0.0378,-0.0327,-0.0313,-0.0413,-0.0402,-0.0347,-0.0365,-0.0207,-0.0196,-0.0114,-0.0129,-0.0122,-0.0133,-0.0115,-0.0114,0.0028,0.0028,0,0,-0.0381,-0.0394,-0.0321,-0.0307,-0.0401,-0.0367,-0.0364,-0.0202,-0.0192,-0.0128,-0.0118,-0.013,-0.0114,-0.0112,0.0028,0.0028,0,0,0,-0.0406,-0.0396,-0.0388,-0.0314,-0.0321,-0.0366,-0.0362,-0.0199,-0.0197,-0.0116,-0.0127,-0.0113,-0.011,0.0028,0.0028,-0.0105,0,0,0,-0.0407,-0.0412,-0.039,-0.0395,-0.0326,-0.0281,-0.0363,-0.0208,-0.0191,-0.0129,-0.0113,-0.0108,0.0028,0.0028,-0.0101,-0.0158,0,0,0,-0.0414,-0.0413,-0.0412,-0.0396,-0.0385,-0.0285,-0.0273,-0.0205,-0.0198,-0.0116,-0.0107,0.0028,0.0028,-0.0097,-0.0151,-0.0135,0,0,0,-0.042,-0.0474,-0.0412,-0.0466,-0.0385,-0.0377,-0.0275,-0.0244,-0.0187,-0.0111,0.0028,0.0028,-0.0096,-0.0147,-0.0132,-0.0034,-0.004,0,0,-0.0506,-0.0485,-0.0518,-0.0463,-0.0493,-0.0382,-0.0375,-0.0255,-0.0158,-0.001,-0.0007,-0.0102,-0.0151,-0.0135,-0.0054,-0.006,0,0,0,-0.0558,-0.0579,-0.0576,-0.0572,-0.0528,-0.0463,-0.035,-0.0286,-0.0177,-0.013,-0.0071,-0.0097,-0.0083,-0.0017,-0.0021,0.0026,0.0026,0.0026,0.0026,-0.0674,-0.0655,-0.0698,-0.0656,-0.0623,-0.0507,-0.0448,-0.0325,-0.0228,-0.0205,-0.0183,-0.0233,-0.0165,-0.0166,-0.0156,-0.0156,-0.0157,-0.0157,-0.0158,-0.0806,-0.0834,-0.0774,-0.0813,-0.0711,-0.0671,-0.0511,-0.044,-0.0329,-0.0266,-0.0245,-0.0133,-0.0179,-0.0168,-0.0166,-0.0164,-0.0163,-0.0162,-0.0162,-0.0884,-0.0897,-0.0909,-0.0925,-0.0886,-0.077,-0.0706,-0.0582,-0.0445,-0.0432,-0.0278,-0.0274,-0.0301,-0.0403,-0.0404,-0.0404,-0.0404,-0.0404,-0.0404,-0.0963,-0.0974,-0.1029,-0.1031,-0.1035,-0.0983,-0.0819,-0.0718,-0.0519,-0.0398,-0.0395,-0.0314,-0.0306,-0.0311,-0.0408,-0.0407,-0.0407,-0.0406,-0.0406,-0.106,-0.106,-0.1161,-0.1189,-0.1192,-0.1152,-0.0987,-0.0706,-0.0578,-0.0455,-0.034,-0.034,-0.0271,-0.0264,-0.0266,-0.0344,-0.0344,-0.0344,-0.0344,-0.111,-0.112,-0.1249,-0.1313,-0.1331,-0.1228,-0.1019,-0.0672,-0.0391,-0.0252,-0.0257,-0.0202,-0.0205,-0.0128,-0.0124,-0.0121,-0.0163,-0.0163,-0.0163,-0.1151,-0.1201,-0.1287,-0.1357,-0.1388,-0.1286,-0.103,-0.0532,-0.0145,-0.0159,-0.0266,-0.0324,-0.0251,-0.0254,-0.0136,-0.0131,-0.0125,0,0]}],[{"header":{"parameterUnit":"m.s-1","parameterCategory":2,"la1":30.2992,"la2":30.254,"lo1":-89.0895,"lo2":-89.0443,"dy":0.0025,"dx":0.0025,"nx":19,"ny":19,"refTime":"2026-05-04T09:00:00:Z","depth":"4","parameterNumber":2,"parameterNumberName":"U-component_of_CURRENTS"},"data":[0,0,0,-0.1804,-0.1808,-0.1995,-0.1996,-0.213,-0.2131,0,0,0,0,0,0,0,0,0,0,0,-0.1734,-0.1736,-0.1803,-0.1808,-0.1995,-0.1996,-0.213,-0.2131,0,0,0,0,0,0,0,0,0,0,0,-0.1734,-0.1735,-0.1737,-0.1809,-0.1995,-0.1996,-0.213,-0.2016,0,0,0,0,0,0,0,0,0,0,-0.1847,-0.1807,-0.1735,-0.1737,-0.181,-0.1995,-0.1996,-0.2011,-0.2023,-0.2013,0,-0.2043,0,-0.2088,-0.2137,-0.2137,0,0,0,-0.1813,-0.1798,-0.1838,-0.1737,-0.1811,-0.1994,-0.1912,-0.2019,-0.2031,-0.2028,-0.2046,-0.2052,-0.209,-0.2137,-0.2138,-0.2312,-0.2313,0,0,-0.1803,-0.1778,-0.1829,-0.1846,-0.1859,-0.1906,-0.1918,-0.2028,-0.2043,-0.2046,-0.2056,-0.2092,-0.2138,-0.2139,-0.2311,-0.2312,0,0,0,-0.177,-0.1771,-0.1811,-0.1839,-0.1881,-0.1911,-0.1925,-0.2039,-0.205,-0.2057,-0.2094,-0.2139,-0.214,-0.2309,-0.2311,-0.2359,0,0,0,-0.1764,-0.1751,-0.1806,-0.1795,-0.188,-0.198,-0.1934,-0.2042,-0.2057,-0.2093,-0.2139,-0.2141,-0.2308,-0.231,-0.2354,-0.2343,0,0,0,-0.1726,-0.1748,-0.1767,-0.1793,-0.1872,-0.1979,-0.1999,-0.2047,-0.2078,-0.2137,-0.2141,-0.2307,-0.231,-0.2351,-0.2338,-0.2343,0,0,0,-0.1697,-0.1733,-0.1767,-0.1828,-0.187,-0.1986,-0.1999,-0.2102,-0.2159,-0.2139,-0.2308,-0.2311,-0.2349,-0.2335,-0.234,-0.2022,0,0,0,-0.1721,-0.1735,-0.1773,-0.1807,-0.1905,-0.1961,-0.2094,-0.2175,-0.2199,-0.2261,-0.2267,-0.2356,-0.2338,-0.2342,-0.2198,0,0,0,0,-0.1767,-0.1786,-0.1825,-0.1895,-0.1982,-0.2091,-0.218,-0.2234,-0.2344,-0.2247,-0.2402,-0.239,-0.239,-0.2201,-0.2325,-0.2325,-0.2325,-0.2324,-0.2324,-0.1729,-0.1794,-0.1864,-0.1958,-0.2044,-0.2195,-0.2284,-0.2378,-0.2394,-0.247,-0.2464,-0.2545,-0.2355,-0.2522,-0.2522,-0.2522,-0.2523,-0.2523,-0.2523,-0.1733,-0.176,-0.1883,-0.1975,-0.2107,-0.2228,-0.24,-0.2456,-0.2558,-0.2566,-0.2564,-0.231,-0.2529,-0.2528,-0.2527,-0.2526,-0.2526,-0.2525,-0.2525,-0.167,-0.1692,-0.1787,-0.1931,-0.2093,-0.2262,-0.2381,-0.251,-0.2581,-0.2609,-0.2389,-0.2567,-0.2518,-0.2613,-0.2613,-0.2613,-0.2613,-0.2613,-0.2613,-0.1541,-0.164,-0.1718,-0.1889,-0.1996,-0.2157,-0.2375,-0.2421,-0.2523,-0.2394,-0.2615,-0.2574,-0.2571,-0.2524,-0.2613,-0.2613,-0.2613,-0.2613,-0.2613,-0.1399,-0.1484,-0.1575,-0.168,-0.1906,-0.2004,-0.2241,-0.2243,-0.2255,-0.218,-0.227,-0.2287,-0.2224,-0.223,-0.2167,-0.2154,-0.215,-0.2146,0,-0.1279,-0.1335,-0.1443,-0.1568,-0.1691,-0.1902,-0.1865,-0.1946,-0.2009,-0.194,-0.2261,-0.2365,-0.2374,-0.2307,-0.2306,-0.2233,0,0,0,-0.1161,-0.1229,-0.125,-0.1433,-0.158,-0.1674,-0.1841,-0.178,-0.2009,-0.1911,-0.205,-0.2075,-0.2419,-0.2614,-0.2558,-0.2554,-0.2474,0,0]},{"header":{"parameterUnit":"m.s-1","parameterCategory":2,"la1":30.2992,"la2":30.254,"lo1":-89.0895,"lo2":-89.0443,"dy":0.0025,"dx":0.0025,"nx":19,"ny":19,"refTime":"2026-05-04T09:00:00:Z","depth":"4","parameterNumber":3,"parameterNumberName":"V-component_of_CURRENTS"},"data":[0,0,0,-0.0276,-0.0276,-0.0266,-0.0266,-0.0136,-0.0135,0,0,0,0,0,0,0,0,0,0,0,-0.0273,-0.0273,-0.0276,-0.0276,-0.0267,-0.0266,-0.0137,-0.0135,0,0,0,0,0,0,0,0,0,0,0,-0.0273,-0.0273,-0.0273,-0.0276,-0.0267,-0.0266,-0.0137,-0.0171,0,0,0,0,0,0,0,0,0,0,-0.0193,-0.022,-0.0273,-0.0273,-0.0276,-0.0267,-0.0266,-0.0173,-0.0168,-0.011,0,-0.0115,0,-0.0126,-0.0125,-0.0124,0,0,0,-0.0265,-0.0225,-0.0216,-0.0273,-0.0276,-0.0267,-0.0268,-0.0172,-0.0166,-0.0103,-0.0114,-0.011,-0.0124,-0.0124,-0.0123,0.001,0.0011,0,0,-0.0266,-0.0272,-0.0221,-0.0213,-0.0278,-0.0268,-0.0268,-0.0169,-0.0165,-0.0113,-0.0107,-0.0121,-0.0123,-0.0121,0.001,0.001,0,0,0,-0.0274,-0.0272,-0.0268,-0.0217,-0.0227,-0.0268,-0.0267,-0.017,-0.0168,-0.0106,-0.012,-0.0122,-0.012,0.001,0.001,-0.0084,0,0,0,-0.0274,-0.0278,-0.0269,-0.0272,-0.023,-0.0217,-0.027,-0.0174,-0.0164,-0.012,-0.0122,-0.0118,0.0009,0.001,-0.0082,-0.0134,0,0,0,-0.0273,-0.0278,-0.0278,-0.0273,-0.0274,-0.022,-0.0212,-0.0173,-0.0172,-0.0124,-0.0118,0.0009,0.001,-0.008,-0.013,-0.0109,0,0,0,-0.0277,-0.0317,-0.0278,-0.0323,-0.0274,-0.0279,-0.0213,-0.0209,-0.0178,-0.0121,0.0009,0.001,-0.008,-0.0127,-0.0108,-0.0105,0,0,0,-0.0339,-0.0324,-0.0353,-0.0319,-0.0351,-0.0279,-0.0277,-0.021,-0.0137,-0.0013,-0.0011,-0.0083,-0.0129,-0.0109,-0.0062,0,0,0,0,-0.0381,-0.0397,-0.0401,-0.0407,-0.0383,-0.0341,-0.0271,-0.0217,-0.0128,-0.0116,-0.0042,-0.0067,-0.0052,-0.0043,0.0014,0.0013,0.0013,0.0013,0.0013,-0.0459,-0.0453,-0.0494,-0.0473,-0.0453,-0.0373,-0.0327,-0.0222,-0.0155,-0.0123,-0.0114,-0.0123,-0.0116,-0.0071,-0.0071,-0.0071,-0.0072,-0.0072,-0.0072,-0.0554,-0.0576,-0.0549,-0.0593,-0.0522,-0.0494,-0.0355,-0.0298,-0.0192,-0.0148,-0.0128,-0.0106,-0.0081,-0.0079,-0.0078,-0.0077,-0.0076,-0.0076,-0.0075,-0.0603,-0.0611,-0.0642,-0.0677,-0.0659,-0.0575,-0.0513,-0.0404,-0.028,-0.0262,-0.0195,-0.0162,-0.0187,-0.0238,-0.0238,-0.0238,-0.0238,-0.0238,-0.0239,-0.0635,-0.0661,-0.0734,-0.076,-0.0784,-0.075,-0.0611,-0.052,-0.0382,-0.0293,-0.028,-0.0178,-0.0172,-0.0193,-0.0241,-0.024,-0.024,-0.024,-0.024,-0.0664,-0.07,-0.0812,-0.0868,-0.0917,-0.0879,-0.0761,-0.0535,-0.0441,-0.0335,-0.0276,-0.0274,-0.023,-0.0222,-0.0244,-0.0309,-0.0309,-0.0309,0,-0.0677,-0.0705,-0.0868,-0.097,-0.1007,-0.0944,-0.0789,-0.0642,-0.0458,-0.0464,-0.0471,-0.0417,-0.041,-0.0373,-0.0365,-0.0398,0,0,0,-0.0675,-0.0744,-0.0853,-0.099,-0.1047,-0.0862,-0.0738,-0.0654,-0.0495,-0.0357,-0.0313,-0.0312,-0.0306,-0.0247,-0.0173,-0.0166,-0.0195,0,0]}]]